| time (UTC) | temp F | wind direction | speed MPH | gust MPH | rain 1hr in | rain 24hr in | rain mn in | humidity % | barometer mb |
| 20260902210039 | 101 | 286 | 0.0 | 3.0 | 0.00 | 0.00 | 0.00 | 40 | 1011.7 |
| 20260902204535 | 101 | 255 | 1.0 | 6.0 | 0.00 | 0.00 | 0.00 | 40 | 1012.0 |
| 20260902203034 | 98 | 0 | 0.0 | 1.0 | 0.00 | 0.00 | 0.00 | 44 | 1012.0 |
| 20260902201534 | 98 | 165 | 0.0 | 1.0 | 0.00 | 0.00 | 0.00 | 42 | 1012.4 |
| 20260902200033 | 99 | 229 | 0.0 | 10.0 | 0.00 | 0.00 | 0.00 | 41 | 1012.5 |
| 20260902194532 | 99 | 0 | 0.0 | 1.0 | 0.00 | 0.00 | 0.00 | 41 | 1012.8 |
| 20260902193035 | 98 | 0 | 0.0 | 1.0 | 0.00 | 0.00 | 0.00 | 41 | 1013.1 |
| 20260902191532 | 100 | 309 | 0.0 | 2.0 | 0.00 | 0.00 | 0.00 | 40 | 1013.4 |
| 20260902190035 | 103 | 0 | 0.0 | 5.0 | 0.00 | 0.00 | 0.00 | 37 | 1013.5 |
| 20260902184534 | 102 | 198 | 1.0 | 4.0 | 0.00 | 0.00 | 0.00 | 38 | 1013.7 |
| 20260902183033 | 102 | 342 | 1.0 | 7.0 | 0.00 | 0.00 | 0.00 | 40 | 1014.0 |
| 20260902181537 | 102 | 264 | 1.0 | 3.0 | 0.00 | 0.00 | 0.00 | 39 | 1014.3 |
| 20260902180032 | 100 | 172 | 1.0 | 7.0 | 0.00 | 0.00 | 0.00 | 41 | 1014.5 |
| 20260902174533 | 99 | 238 | 1.0 | 2.0 | 0.00 | 0.00 | 0.00 | 43 | 1014.7 |
| 20260902173036 | 99 | 266 | 1.0 | 5.0 | 0.00 | 0.00 | 0.00 | 44 | 1015.1 |
| 20260902171539 | 98 | 0 | 1.0 | 5.0 | 0.00 | 0.00 | 0.00 | 46 | 1015.2 |
| 20260902170035 | 97 | 269 | 1.0 | 5.0 | 0.00 | 0.00 | 0.00 | 47 | 1015.3 |
| 20260902164535 | 96 | 321 | 1.0 | 3.0 | 0.00 | 0.00 | 0.00 | 48 | 1015.6 |
| 20260902163032 | 95 | 230 | 0.0 | 3.0 | 0.00 | 0.00 | 0.00 | 50 | 1015.8 |
| 20260902161539 | 95 | 15 | 0.0 | 2.0 | 0.00 | 0.00 | 0.00 | 52 | 1015.9 |
| 20260902160046 | 93 | 0 | 1.0 | 4.0 | 0.00 | 0.00 | 0.00 | 55 | 1015.9 |
| 20260902154537 | 92 | 0 | 0.0 | 3.0 | 0.00 | 0.00 | 0.00 | 57 | 1015.9 |
| 20260902153033 | 91 | 210 | 0.0 | 2.0 | 0.00 | 0.00 | 0.00 | 60 | 1016.0 |
| 20260902151533 | 89 | 0 | 0.0 | 3.0 | 0.00 | 0.00 | 0.00 | 63 | 1016.1 |
| 20260902150033 | 88 | 0 | 0.0 | 2.0 | 0.00 | 0.00 | 0.00 | 64 | 1016.0 |
| 20260902144534 | 86 | 264 | 0.0 | 2.0 | 0.00 | 0.00 | 0.00 | 67 | 1016.1 |
| 20260902143032 | 86 | 248 | 1.0 | 3.0 | 0.00 | 0.00 | 0.00 | 67 | 1016.1 |
| 20260902141535 | 86 | 252 | 1.0 | 3.0 | 0.00 | 0.00 | 0.00 | 68 | 1016.0 |
| 20260902140036 | 85 | 265 | 1.0 | 2.0 | 0.00 | 0.00 | 0.00 | 70 | 1016.1 |
| 20260902134533 | 84 | 0 | 0.0 | 2.0 | 0.00 | 0.00 | 0.00 | 70 | 1016.0 |
| 20260902133033 | 82 | 0 | 0.0 | 2.0 | 0.00 | 0.00 | 0.00 | 72 | 1015.9 |
| 20260902131535 | 80 | 167 | 0.0 | 0.0 | 0.00 | 0.00 | 0.00 | 76 | 1015.6 |
| 20260902130034 | 79 | 0 | 0.0 | 0.0 | 0.00 | 0.00 | 0.00 | 79 | 1015.5 |
| 20260902124534 | 77 | 0 | 0.0 | 0.0 | 0.00 | 0.00 | 0.00 | 81 | 1015.5 |
| 20260902123035 | 77 | 0 | 0.0 | 0.0 | 0.00 | 0.00 | 0.00 | 81 | 1015.2 |
| 20260902121533 | 78 | 0 | 0.0 | 0.0 | 0.00 | 0.00 | 0.00 | 79 | 1015.1 |
| 20260902120034 | 78 | 0 | 0.0 | 0.0 | 0.00 | 0.00 | 0.00 | 80 | 1015.1 |
| 20260902114607 | 77 | 0 | 0.0 | 0.0 | 0.00 | 0.00 | 0.00 | 80 | 1015.0 |
| 20260902113032 | 78 | 0 | 0.0 | 0.0 | 0.00 | 0.00 | 0.00 | 79 | 1014.8 |
| 20260902111532 | 79 | 0 | 0.0 | 1.0 | 0.00 | 0.00 | 0.00 | 78 | 1014.8 |
| 20260902110033 | 79 | 0 | 0.0 | 0.0 | 0.00 | 0.00 | 0.00 | 77 | 1014.8 |
| 20260902104534 | 79 | 0 | 0.0 | 1.0 | 0.00 | 0.00 | 0.00 | 77 | 1014.9 |
| 20260902103035 | 79 | 0 | 0.0 | 0.0 | 0.00 | 0.00 | 0.00 | 77 | 1014.8 |
| 20260902101534 | 80 | 0 | 0.0 | 1.0 | 0.00 | 0.00 | 0.00 | 76 | 1014.8 |
| 20260902100043 | 80 | 0 | 0.0 | 1.0 | 0.00 | 0.00 | 0.00 | 75 | 1014.7 |
| 20260902094537 | 80 | 0 | 0.0 | 0.0 | 0.00 | 0.00 | 0.00 | 74 | 1014.7 |
| 20260902093050 | 81 | 0 | 0.0 | 1.0 | 0.00 | 0.00 | 0.00 | 73 | 1014.7 |
| 20260902091532 | 81 | 245 | 0.0 | 3.0 | 0.00 | 0.00 | 0.00 | 73 | 1014.9 |
| 20260902090032 | 81 | 0 | 0.0 | 1.0 | 0.00 | 0.00 | 0.00 | 73 | 1014.9 |
| 20260902084536 | 81 | 0 | 0.0 | 1.0 | 0.00 | 0.00 | 0.00 | 73 | 1015.0 |
| 20260902083038 | 82 | 0 | 0.0 | 2.0 | 0.00 | 0.00 | 0.00 | 72 | 1015.0 |
| 20260902081533 | 82 | 54 | 0.0 | 1.0 | 0.00 | 0.00 | 0.00 | 71 | 1015.0 |
| 20260902080034 | 83 | 0 | 0.0 | 1.0 | 0.00 | 0.00 | 0.00 | 67 | 1015.1 |
| 20260902074538 | 83 | 0 | 0.0 | 5.0 | 0.00 | 0.00 | 0.00 | 67 | 1015.0 |
| 20260902073033 | 83 | 0 | 0.0 | 1.0 | 0.00 | 0.00 | 0.00 | 68 | 1015.0 |
| 20260902071532 | 83 | 60 | 1.0 | 4.0 | 0.00 | 0.00 | 0.00 | 68 | 1015.2 |
| 20260902070033 | 84 | 0 | 0.0 | 3.0 | 0.00 | 0.00 | 0.00 | 68 | 1015.4 |
| 20260902064540 | 84 | 241 | 1.0 | 4.0 | 0.00 | 0.00 | 0.00 | 68 | 1015.2 |
| 20260902063033 | 84 | 0 | 0.0 | 2.0 | 0.00 | 0.00 | 0.00 | 69 | 1015.0 |
| 20260902061533 | 84 | 198 | 0.0 | 3.0 | 0.00 | 0.00 | 0.00 | 69 | 1015.1 |
| 20260902060031 | 84 | 239 | 0.0 | 1.0 | 0.00 | 0.00 | 0.00 | 68 | 1015.1 |
| 20260902054539 | 85 | 0 | 0.0 | 2.0 | 0.00 | 0.00 | 0.00 | 68 | 1015.1 |
| 20260902053110 | 85 | 0 | 0.0 | 2.0 | 0.00 | 0.00 | 0.00 | 67 | 1015.2 |
| 20260902051534 | 86 | 243 | 0.0 | 2.0 | 0.00 | 0.00 | 0.00 | 66 | 1015.1 |
| 20260902050040 | 86 | 0 | 0.0 | 2.0 | 0.00 | 0.00 | 0.00 | 66 | 1015.3 |
| 20260902044530 | 86 | 254 | 1.0 | 3.0 | 0.00 | 0.00 | 0.00 | 65 | 1015.2 |
| 20260902043034 | 87 | 37 | 1.0 | 4.0 | 0.00 | 0.00 | 0.00 | 64 | 1015.3 |
| 20260902041538 | 87 | 0 | 0.0 | 6.0 | 0.00 | 0.00 | 0.00 | 63 | 1015.3 |
| 20260902040039 | 88 | 62 | 1.0 | 4.0 | 0.00 | 0.00 | 0.00 | 61 | 1015.1 |
| 20260902034534 | 88 | 49 | 2.0 | 5.0 | 0.00 | 0.00 | 0.00 | 60 | 1014.9 |
| 20260902033038 | 89 | 50 | 1.0 | 4.0 | 0.00 | 0.00 | 0.00 | 58 | 1014.6 |
| 20260902031534 | 89 | 80 | 0.0 | 5.0 | 0.00 | 0.00 | 0.00 | 57 | 1014.4 |
| 20260902030034 | 89 | 95 | 2.0 | 6.0 | 0.00 | 0.00 | 0.00 | 56 | 1014.3 |
| 20260902024539 | 90 | 72 | 2.0 | 5.0 | 0.00 | 0.00 | 0.00 | 56 | 1014.1 |
| 20260902023030 | 90 | 93 | 1.0 | 4.0 | 0.00 | 0.00 | 0.00 | 55 | 1013.8 |
| 20260902021545 | 90 | 72 | 1.0 | 4.0 | 0.00 | 0.00 | 0.00 | 54 | 1013.6 |
| 20260902020036 | 91 | 134 | 1.0 | 4.0 | 0.00 | 0.00 | 0.00 | 54 | 1013.5 |
| 20260902014537 | 91 | 95 | 0.0 | 6.0 | 0.00 | 0.00 | 0.00 | 53 | 1013.2 |
| 20260902013035 | 92 | 0 | 0.0 | 8.0 | 0.00 | 0.00 | 0.00 | 50 | 1013.0 |
| 20260902011534 | 94 | 58 | 2.0 | 6.0 | 0.00 | 0.00 | 0.00 | 46 | 1012.9 |
| 20260902010035 | 94 | 113 | 3.0 | 7.0 | 0.00 | 0.00 | 0.00 | 44 | 1012.6 |
| 20260902004536 | 95 | 78 | 3.0 | 8.0 | 0.00 | 0.00 | 0.00 | 44 | 1012.8 |
| 20260902003038 | 95 | 75 | 2.0 | 7.0 | 0.00 | 0.00 | 0.00 | 43 | 1012.9 |
| 20260902001534 | 95 | 105 | 3.0 | 8.0 | 0.00 | 0.00 | 0.00 | 44 | 1012.8 |
| 20260902000037 | 95 | 83 | 2.0 | 7.0 | 0.00 | 0.00 | 0.00 | 45 | 1012.8 |
| 20260901234534 | 96 | 105 | 2.0 | 7.0 | 0.00 | 0.00 | 0.00 | 44 | 1013.0 |
| 20260901233051 | 96 | 131 | 3.0 | 9.0 | 0.00 | 0.00 | 0.00 | 44 | 1012.8 |
| 20260901231538 | 98 | 89 | 4.0 | 12.0 | 0.00 | 0.00 | 0.00 | 43 | 1012.7 |
| 20260901230035 | 99 | 68 | 2.0 | 5.0 | 0.00 | 0.00 | 0.00 | 40 | 1012.6 |
| 20260901224533 | 99 | 105 | 2.0 | 7.0 | 0.00 | 0.00 | 0.00 | 40 | 1012.7 |
| 20260901223032 | 98 | 84 | 3.0 | 8.0 | 0.00 | 0.00 | 0.00 | 41 | 1012.8 |
| 20260901221534 | 98 | 12 | 2.0 | 10.0 | 0.00 | 0.00 | 0.00 | 40 | 1012.8 |
| 20260901220036 | 99 | 123 | 4.0 | 11.0 | 0.00 | 0.00 | 0.00 | 39 | 1012.8 |
| 20260901214538 | 100 | 122 | 4.0 | 10.0 | 0.00 | 0.00 | 0.00 | 37 | 1012.8 |
| 20260901213035 | 100 | 35 | 1.0 | 4.0 | 0.00 | 0.00 | 0.00 | 38 | 1012.9 |
| 20260901211534 | 100 | 250 | 1.0 | 5.0 | 0.00 | 0.00 | 0.00 | 40 | 1013.1 |